Prague, Czech Republic

6:06 PM CEST on July 24, 2017 (GMT +0200)
Ruzyne

Weather History for LKPR - December, 2012

Change the Weather History Date:

Sunday, December 9, 2012

  Actual Average Record
Temperature  
Mean Temperature 23 °F -  
Max Temperature 30 °F 34 °F 53 °F (1999)
Min Temperature 16 °F 25 °F 14 °F (2002)
Degree Days  
Heating Degree Days 42    
Moisture  
Dew Point 19 °F    
Average Humidity 84    
Maximum Humidity 93    
Minimum Humidity 55    
Precipitation  
Precipitation 0.04 in 0.03 in - ()
Sea Level Pressure  
Sea Level Pressure 29.93 in    
Wind  
Wind Speed 13 mph ()    
Max Wind Speed 25 mph    
Max Gust Speed -    
Visibility 3.4 miles    
Events Snow    
Averages and records for this station are not official NWS values.
T = Trace of Precipitation, MM = Missing Value Source: Averaged Metar Reports

Daily Weather History Graph

Daily Weather History Graph

Search for Another Location

Airport or City:

Trip Planner

Search our weather history database for the weather conditions in past years. The results will help you decide how hot, cold, wet, or windy it might be!

Date:

Astronomy

Dec. 09, 2012 Rise Set
Actual Time 7:49 AM CET 4:00 PM CET
Civil Twilight 7:11 AM CET 4:38 PM CET
Nautical Twilight 6:30 AM CET 5:20 PM CET
Astronomical Twilight 5:50 AM CET 5:59 PM CET
Moon 2:41 AM CET (12/9) 1:14 PM CET (12/9)
Length of Visible Light 9h 27m
Length of Day
8h 10m
Waning Crescent, 21% of the Moon is Illuminated
Dec 9
Waning Crescent
Dec 13
New
Dec 20
First Quarter
Dec 28
Full
Jan 5
Last Quarter

Hourly Weather History & Observations

Time (CET) Temp. Windchill Dew Point Humidity Pressure Visibility Wind Dir Wind Speed Gust Speed Precip Events Conditions
12:00 AM 19.4 °F 7.2 °F 15.8 °F 86% 30.15 in 5.6 mi SW 11.5 mph - N/A   Unknown
12:30 AM 19.4 °F 7.2 °F 15.8 °F 86% 30.15 in 5.6 mi SW 11.5 mph - N/A   Unknown
1:00 AM 19 °F - 15 °F 79% 30.27 in 6 mi SW 13.4 mph - -   Mist
1:00 AM 19.4 °F 7.2 °F 15.8 °F 86% 30.15 in 5.6 mi SW 11.5 mph - N/A   Unknown
1:30 AM 19.4 °F 7.2 °F 15.8 °F 86% 30.15 in - SW 11.5 mph - N/A   Clear
2:00 AM 19.4 °F 7.2 °F 15.8 °F 86% 30.15 in - SW 11.5 mph - N/A   Clear
2:30 AM 19.4 °F 7.9 °F 15.8 °F 86% 30.15 in - WSW 10.4 mph - N/A   Clear
3:00 AM 19.4 °F 6.6 °F 14.0 °F 80% 30.15 in - WSW 12.7 mph - N/A   Clear
3:30 AM 19.4 °F 6.6 °F 15.8 °F 86% 30.15 in - SW 12.7 mph - N/A   Clear
4:00 AM 19.4 °F 7.2 °F 15.8 °F 86% 30.15 in - WSW 11.5 mph - N/A   Clear
4:30 AM 19.4 °F 6.0 °F 15.8 °F 86% 30.15 in - WSW 13.8 mph - N/A   Clear
5:00 AM 17.6 °F 4.3 °F 15.8 °F 93% 30.15 in - SW 12.7 mph - N/A   Clear
5:30 AM 17.6 °F 3.2 °F 14.0 °F 86% 30.12 in - SW 15.0 mph - N/A   Clear
6:00 AM 17.6 °F 5.0 °F 14.0 °F 86% 30.12 in - SW 11.5 mph - N/A   Clear
6:30 AM 17.6 °F 5.7 °F 14.0 °F 86% 30.12 in - SW 10.4 mph - N/A   Clear
7:00 AM 18 °F - 14 °F 76% 30.24 in 7 mi WSW 13.4 mph - -   Scattered Clouds
7:00 AM 17.6 °F 3.7 °F 14.0 °F 86% 30.12 in - SW 13.8 mph - N/A   Clear
7:30 AM 17.6 °F 3.2 °F 14.0 °F 86% 30.12 in - SW 15.0 mph - N/A   Clear
8:00 AM 17.6 °F 2.7 °F 14.0 °F 86% 30.09 in - SW 16.1 mph - N/A   Clear
8:30 AM 17.6 °F 2.7 °F 14.0 °F 86% 30.09 in - SW 16.1 mph - N/A   Clear
9:00 AM 17.6 °F 2.7 °F 14.0 °F 86% 30.09 in - SW 16.1 mph - N/A   Clear
9:30 AM 19.4 °F 6.0 °F 15.8 °F 86% 30.09 in - SW 13.8 mph - N/A   Clear
10:00 AM 21.2 °F 7.3 °F 15.8 °F 80% 30.06 in - SW 16.1 mph - N/A   Clear
10:30 AM 21.2 °F 8.3 °F 15.8 °F 80% 30.06 in - SW 13.8 mph - N/A   Clear
11:00 AM 23.0 °F 10.1 °F 15.8 °F 74% 30.06 in - SW 15.0 mph - N/A   Clear
11:30 AM 23.0 °F 11.1 °F 15.8 °F 74% 30.04 in - SW 12.7 mph - N/A   Clear
12:00 PM 24.8 °F 11.5 °F 15.8 °F 69% 30.01 in - SW 17.3 mph - N/A   Clear
12:30 PM 24.8 °F 13.4 °F 15.8 °F 69% 30.01 in - SW 12.7 mph - N/A   Clear
1:00 PM 24 °F - 15 °F 55% 30.08 in 9 mi WSW 15.7 mph - -   Scattered Clouds
1:00 PM 24.8 °F 10.7 °F 15.8 °F 69% 29.98 in - SW 19.6 mph - N/A   Clear
1:30 PM 24.8 °F 16.1 °F 17.6 °F 74% 29.95 in - SSW 8.1 mph - N/A   Clear
2:00 PM 24.8 °F 15.3 °F 17.6 °F 74% 29.95 in - SSW 9.2 mph - N/A   Clear
2:21 PM 24.8 °F 15.3 °F 17.6 °F 74% 29.92 in 4.3 mi SSW 9.2 mph - N/A Snow Light Snow
2:30 PM 24.8 °F 16.1 °F 17.6 °F 74% 29.92 in 3.7 mi SSW 8.1 mph - N/A Snow Light Snow
2:45 PM 23.0 °F 12.4 °F 17.6 °F 80% 29.92 in 2.5 mi South 10.4 mph - N/A Snow Light Snow
3:00 PM 23.0 °F 12.4 °F 19.4 °F 86% 29.89 in 1.6 mi SSW 10.4 mph - N/A Snow Light Snow
3:30 PM 23.0 °F 11.1 °F 19.4 °F 86% 29.89 in 1.1 mi South 12.7 mph - N/A Snow Snow
4:00 PM 23.0 °F 11.7 °F 19.4 °F 86% 29.86 in 1.1 mi South 11.5 mph - N/A Snow Snow
4:30 PM 23.0 °F 11.1 °F 21.2 °F 93% 29.86 in 1.1 mi SSW 12.7 mph - N/A Snow Snow
5:00 PM 23.0 °F 10.6 °F 21.2 °F 93% 29.83 in 1.3 mi SSW 13.8 mph - N/A Snow Snow
5:16 PM 24.8 °F 14.0 °F 21.2 °F 86% 29.83 in 1.1 mi SSW 11.5 mph - N/A Snow Snow
5:30 PM 24.8 °F 14.0 °F 21.2 °F 86% 29.83 in 1.0 mi SSW 11.5 mph - N/A Snow Snow
6:00 PM 24.8 °F 12.4 °F 23.0 °F 93% 29.80 in 1.3 mi SSW 15.0 mph - N/A Snow Snow
6:12 PM 24.8 °F 12.4 °F 23.0 °F 93% 29.80 in 2.2 mi SSW 15.0 mph - N/A Snow Light Snow
6:30 PM 26.6 °F 15.2 °F 23.0 °F 86% 29.77 in 1.9 mi SW 13.8 mph - N/A Snow Light Snow
7:00 PM 26 °F - 23 °F 85% 29.86 in 2 mi SW 20.1 mph - - Snow Light Snow
7:00 PM 26.6 °F 13.8 °F 23.0 °F 86% 29.77 in 2.5 mi SW 17.3 mph - N/A Snow Light Snow
7:11 PM 26.6 °F 13.8 °F 23.0 °F 86% 29.77 in 5.0 mi SW 17.3 mph - N/A Snow Light Snow
7:30 PM 26.6 °F 13.8 °F 23.0 °F 86% 29.77 in 6.2 mi SW 17.3 mph - N/A Snow Light Snow
8:00 PM 28.4 °F 15.1 °F 24.8 °F 86% 29.74 in 6.2 mi WSW 20.7 mph - N/A Snow Light Snow
8:03 PM 28.4 °F 15.1 °F 24.8 °F 86% 29.74 in 3.1 mi WSW 20.7 mph - N/A Snow Snow Showers
8:07 PM 28.4 °F 15.1 °F 24.8 °F 86% 29.74 in 1.9 mi WSW 20.7 mph - N/A Snow Snow Showers
8:14 PM 26.6 °F 13.1 °F 24.8 °F 93% 29.74 in 1.2 mi WSW 19.6 mph - N/A Snow Snow Showers
8:19 PM 26.6 °F 13.4 °F 24.8 °F 93% 29.74 in 1.2 mi WSW 18.4 mph - N/A Snow Snow Showers
8:30 PM 26.6 °F 13.4 °F 24.8 °F 93% 29.74 in 1.4 mi WSW 18.4 mph - N/A Snow Snow Showers
8:38 PM 28.4 °F 15.8 °F 24.8 °F 86% 29.74 in 3.7 mi WSW 18.4 mph - N/A Snow Light Snow Showers
8:41 PM 28.4 °F 15.4 °F 24.8 °F 86% 29.74 in 2.5 mi WSW 19.6 mph - N/A Snow Light Snow Showers
8:49 PM 28.4 °F 15.1 °F 24.8 °F 86% 29.74 in 1.6 mi WSW 20.7 mph - N/A Snow Snow Showers
8:53 PM 28.4 °F 15.1 °F 24.8 °F 86% 29.74 in 3.1 mi WSW 20.7 mph - N/A Snow Light Snow Showers
9:00 PM 28.4 °F 14.7 °F 24.8 °F 86% 29.74 in 3.7 mi SW 21.9 mph - N/A Snow Light Snow Showers
9:12 PM 28.4 °F 14.1 °F 24.8 °F 86% 29.71 in 4.3 mi WSW 24.2 mph - N/A Snow Light Snow
9:30 PM 28.4 °F 13.8 °F 24.8 °F 86% 29.71 in 5.6 mi WSW 25.3 mph - N/A   Scattered Clouds
10:00 PM 28.4 °F 14.4 °F 24.8 °F 86% 29.71 in 6.2 mi WSW 23.0 mph - N/A Snow Low Drifting Snow
10:30 PM 30.2 °F 16.5 °F 24.8 °F 80% 29.71 in 6.2 mi WSW 24.2 mph - N/A   Partly Cloudy
11:00 PM 28.4 °F 13.8 °F 24.8 °F 86% 29.68 in - WSW 25.3 mph - N/A   Clear
11:30 PM 30.2 °F 16.2 °F 24.8 °F 80% 29.68 in - WSW 25.3 mph - N/A   Clear
11:50 PM 30.2 °F 16.8 °F 24.8 °F 80% 29.68 in - SW 23.0 mph - N/A   Clear